SCP
0 0 -0 -0 -0 -0 -0 -0 -0 -0 -0 -0 -0 -0 -0 -0 -0 -0 -0 -0 -0 -0 -0 -0 -0 -0 -0 -0 -0 -0 -0 -0 -0 -0 -0 -0 -0 -0 -0 -0 0 -0 0
0 0 0 -0 -0 -0 -0 -0 -0 -0 -0 -0 -0 -0 -0 -0 -0 -0 -0 -0 -0 -0 -0 -0 -0 -0 -0 -0 -0 -0 -0 -0 -0 -0 -0 0 0 -0 0 0 0 0 -0
0 0 0 -0 -0 -0 -0 -0 -0 -0 -0 -0 -0 -0 -0 -0 -0 -0 -0 -0 -0 -0 -0 -0 -0 -0 -0 -0 -0 0 -0 -0 -0 -0 0 -0 -0 0 0 0 0 -0 0
0 0 0 -0 -0 -0 -0 -0 -0 -0 -0 -0 -0 -0 -0 -0 -0 -0 -0 -0 -0 -0 -0 -0 -0 -0 -0 -0 -0 -0 -0 -0 -0 -0 -0 -0 -0 0 0 0 0 -0 -0
0 0 0 -0 -0 -0 -0 -0 -0 -0 -0 -0 -0 -0 -0 -0 -0 -0 -0 -0 -0 -0 -0 -0 -0 -0 -0 -0 -0 -0 -0 0 0 -0 -0 -0 -0 0 0 0 -0 -0 -0
0 0 0 0 -0 -0 -0 -0 0 0 -0 -0 -0 -0 -0 -0 -0 -0 -0 0 0 -0 0 -0 -0 0 0 0 0 0 0 0 0 -0 -0 -0 -0 0 0 0 0 -0 -0
0 0 0 0 0 -0 -0 -0 -0 0 0 0 -0 -0 -0 -0 -0 0 0 0 0 0 0 0 0 0 0 0 0 0 0 0 0 -0 -0 -0 -0 0 0 0 -0 -0 -0
0 0 0 0 0 0 0 0 -0 0 0 0 0 0 0 0 0 -0 -0 -0 0 0 0 0 0 0 0 0 0 0 0 0 0 -0 -0 -0 -0 -0 0 -0 -0 -0 -0
0 0 0 0 0 0 0 0 0 -0 0 0 0 0 0 0 0 0 -0 -0 -0 0 0 0 0 0 0 0 0 0 0 0 0 -0 -0 -0 -0 -0 -0 -0 -0 -0 -0
0 0 0 0 0 0 0 0 0 0 0 0 0 0 0 0 0 0 0 0 -0 0 0 0 0 0 0 0 0 0 0 0 0 -0 0 -0 -0 -0 -0 -0 0 -0 -0
0 0 0 0 0 0 0 0 0 0 0 0 0 0 0 0 0 0 0 0 0 0 0 0 0 0 0 0 0 0 0 0 0 0 0 -0 -0 -0 -0 -0 0 0 0
0 0 0 0 0 0 0 0 0 0 0 0 0 0 0 0 0 0 0 0 0 0 0 0 0 0 0 0 0 0 0 0 0 0 0 0 0 0 0 0 0 0 0
0 0 0 0 0 0 0 0 0 0 0 0 0 0 0 0 0 0 0 0 0 0 0 0 0 0 0 0 0 0 0 0 0 0 0 0 0 0 0 0 0 0 0
0 0 0 0 0 0 0 0 0 0 0 0 0 0 0 0 0 0 0 0 0 0 0 0 0 0 0 0 0 0 0 0 0 0 0 0 0 0 0 0 0 0 0
0 0 0 0 0 0 0 0 0 0 0 0 0 0 0 0 0 0 0 0 0 0 0 0 0 0 0 0 0 0 0 0 0 0 0 0 0 0 0 0 0 0 0
0 0 0 0 0 0 0 0 0 0 0 0 0 0 0 0 0 0 0 0 0 0 0 0 0 0 0 0 0 0 0 0 0 0 0 0 0 0 0 0 0 0 0
0 0 0 0 0 0 0 0 0 0 0 0 0 0 0 0 0 0 0 0 0 0 0 0 0 0 0 0 0 0 0 0 0 0 0 0 0 0 0 0 0 0 0
0 0 0 0 0 0 0 0 0 0 0 0 0 0 0 0 0 0 0 0 0 0 0 0 0 0 0 0 0 0 0 0 0 0 0 0 0 0 0 0 0 0 0
0 0 0 0 0 0 0 0 0 0 0 0 0 0 0 0 0 0 0 0 0 0 0 0 0 0 0 0 0 0 0 0 0 0 0 0 0 0 0 0 0 0 0
0 0 0 0 0 0 0 0 0 0 0 0 0 0 0 0 0 0 0 0 0 0 0 0 0 0 0 0 0 0 0 0 0 0 0 0 0 0 0 0 0 0 0
0 0 0 0 0 0 0 0 0 0 0 0 0 0 0 0 0 0 0 0 0 0 0 0 0 0 0 0 0 0 0 0 0 0 0 0 0 0 0 0 0 0 0
0 0 0 0 0 0 0 0 0 0 0 0 0 0 0 0 0 0 0 0 0 0 0 0 0 0 0 0 0 0 0 0 0 0 0 0 0 0 0 0 0 0 0
0 0 0 0 0 0 0 0 0 0 0 0 0 0 0 0 0 0 0 0 0 0 0 0 0 0 0 0 0 0 0 0 0 0 0 0 0 0 0 0 0 0 0
0 0 0 0 0 0 0 0 0 0 0 0 0 0 0 0 0 0 0 0 0 0 0 0 0 0 0 0 0 0 0 0 0 0 0 0 0 0 0 0 0 0 0
0 0 0 0 0 0 0 0 0 0 0 0 0 0 0 0 0 0 0 0 0 0 0 0 0 0 0 0 0 0 0 0 0 0 0 0 0 0 0 0 0 0 0
0 0 0 0 0 0 0 0 0 0 0 0 0 0 0 0 0 0 0 0 0 0 0 0 0 0 0 0 0 0 0 0 0 0 0 0 0 0 0 0 0 0 0
Wind_Speed_500mb
62 55 48 39 31 29 28 29 35 37 36 34 36 35 37 39 39 34 26 26 29 30 28 26 25 22 20 18 14 15 22 24 25 27 27 30 30 31 28 30 33 32 30
69 56 50 39 34 33 31 37 39 40 38 35 36 35 36 32 32 30 29 29 30 26 22 17 19 16 13 12 13 15 21 27 28 29 28 27 27 31 25 32 29 27 30
66 55 49 41 34 35 34 41 40 40 37 35 36 35 31 33 32 27 25 25 30 28 19 19 16 14 11 11 17 23 22 26 28 29 27 27 28 23 23 25 24 24 24
62 56 50 41 37 37 39 43 40 39 37 37 36 38 35 29 21 16 17 16 25 23 18 17 19 15 11 14 19 26 27 26 26 29 27 27 25 24 22 22 21 22 22
60 54 47 41 38 39 42 43 41 38 37 31 31 28 23 15 10 8 6 6 15 26 17 15 15 11 10 13 16 20 21 20 24 24 25 25 23 24 22 22 21 21 20
58 52 46 41 39 40 43 44 40 37 34 29 25 22 17 13 9 8 4 8 17 20 22 19 14 12 12 12 15 17 18 19 18 20 21 21 21 22 22 21 20 19 18
56 50 46 39 40 41 43 44 40 36 32 24 23 16 13 11 10 8 6 15 20 23 26 20 17 14 13 11 11 12 14 15 15 15 17 18 18 18 19 19 18 18 17
53 50 44 40 41 41 43 42 38 34 29 22 18 13 11 11 14 13 9 16 19 20 24 21 18 15 12 8 7 6 9 10 11 11 12 13 15 17 17 17 16 16 16
51 48 45 43 42 41 42 42 37 37 27 18 13 8 8 11 16 16 11 14 19 20 19 18 16 13 9 5 2 3 5 6 7 9 10 10 11 13 15 16 17 17 17
53 49 46 46 46 43 43 43 38 35 24 16 10 9 10 14 18 18 13 13 16 14 13 12 11 8 6 3 3 3 6 8 7 9 11 10 10 11 13 15 17 18 18
54 51 48 47 47 43 43 45 39 32 25 16 12 11 11 13 16 16 14 10 12 11 9 8 8 7 6 6 7 6 7 9 9 10 13 11 12 12 14 16 18 19 19
57 53 48 46 47 44 44 46 42 36 27 19 15 9 13 14 10 10 9 12 9 10 9 6 7 10 10 9 9 8 9 9 10 11 13 14 14 14 16 19 19 20 21
55 51 50 48 47 46 46 46 43 37 27 22 18 14 15 14 9 8 9 8 5 6 5 4 6 8 10 10 10 10 11 13 14 15 15 16 16 17 18 19 20 21 23
52 47 48 49 47 46 45 44 41 36 29 24 18 15 11 10 6 3 10 11 10 9 9 8 8 9 9 10 11 13 15 17 16 16 16 19 20 21 22 22 22 22 21
41 47 46 48 48 45 45 43 41 37 30 23 20 16 14 12 9 6 7 10 10 9 10 12 12 12 13 14 15 16 16 16 16 18 18 20 21 20 20 20 21 21 19
36 36 41 45 47 45 44 42 40 38 32 28 24 20 18 18 16 13 11 11 11 11 13 12 12 13 13 15 15 17 18 20 21 21 21 19 18 21 24 22 20 18 17
38 34 37 38 43 47 45 41 39 36 33 31 27 24 23 22 21 19 18 17 13 13 15 14 14 14 15 17 16 18 21 21 19 16 13 16 21 23 21 19 19 20 19
39 38 33 36 42 48 44 40 38 35 34 32 29 24 24 26 25 25 23 21 18 19 18 17 18 18 19 20 18 19 20 16 13 12 13 18 21 17 14 14 14 14 13
37 38 33 33 37 42 40 39 33 28 29 23 26 27 26 21 21 22 19 18 21 21 20 18 18 19 18 19 22 24 23 21 19 17 15 11 9 10 9 7 6 8 11
42 40 38 35 36 37 34 34 36 35 36 35 33 32 30 29 26 26 25 23 21 23 23 23 22 22 23 25 28 30 20 18 18 11 7 7 7 7 2 3 5 9 15
44 50 49 42 41 44 43 46 44 45 39 38 36 33 34 33 31 32 32 29 29 30 28 29 29 28 28 28 31 33 17 11 2 12 8 2 4 4 3 6 10 17 21
41 39 43 46 48 48 50 47 48 44 44 41 39 38 38 37 36 37 35 34 33 36 37 37 37 37 36 32 30 31 11 4 17 9 8 4 10 9 13 16 21 25 28
48 47 48 53 56 53 54 54 54 57 51 45 44 45 43 43 42 42 41 39 39 40 43 44 43 43 41 34 33 24 12 5 9 10 10 6 14 21 18 21 25 28 28
40 48 55 55 59 47 50 53 47 54 55 48 46 42 42 48 49 47 45 47 46 47 48 47 45 49 46 44 42 41 38 32 18 14 8 16 32 21 21 25 24 30 32
26 38 46 54 54 55 52 43 49 49 46 50 47 41 37 38 47 50 51 51 52 50 50 50 50 48 52 53 52 53 47 40 37 41 35 24 21 27 27 26 28 27 24
17 21 29 36 43 48 49 49 54 53 52 51 49 47 45 37 37 47 51 52 51 54 54 53 51 55 55 58 60 61 62 56 50 47 46 39 33 29 22 22 23 28 27
Wind_Direction_500mb
173 167 173 177 169 162 156 151 145 140 138 135 132 129 129 130 128 129 110 102 133 132 131 127 114 108 96 75 66 59 72 78 78 74 76 89 83 76 73 75 69 79 81
166 167 172 175 167 160 155 150 143 140 138 138 138 135 138 137 137 128 116 113 116 128 151 138 123 125 93 55 62 72 84 79 76 74 71 76 80 78 75 76 72 68 79
168 167 167 172 165 159 154 151 146 144 142 136 150 143 143 139 136 129 121 128 122 117 121 123 122 118 100 83 75 77 91 78 75 73 69 70 75 78 76 75 66 79 70
167 167 164 168 163 159 155 153 148 150 152 142 133 145 136 141 141 141 130 138 164 146 145 121 125 111 108 93 81 75 77 76 77 72 69 65 65 67 64 60 59 58 60
168 167 164 165 164 159 157 155 150 155 164 157 153 149 156 162 173 192 186 153 163 179 157 148 134 131 113 99 80 67 66 69 70 64 61 61 58 59 56 54 52 51 49
168 167 164 165 164 161 159 159 158 160 161 173 165 169 177 187 204 209 187 148 149 159 163 161 150 137 120 95 74 65 61 61 61 57 57 56 53 50 47 45 43 43 43
167 166 162 167 165 163 162 165 164 165 161 158 172 177 187 198 204 192 172 150 150 134 153 144 139 129 117 102 81 68 63 55 50 48 51 53 48 44 39 35 32 29 29
168 167 164 168 169 167 167 167 169 169 163 155 162 173 185 191 182 181 153 145 138 126 132 139 136 132 129 124 100 77 56 46 42 36 38 37 36 33 29 23 19 16 15
173 172 170 171 172 171 171 173 171 174 169 166 174 189 180 172 171 174 160 139 145 139 135 136 139 140 140 134 106 31 26 25 20 21 24 24 23 19 16 9 4 2 359
175 175 175 173 175 175 175 177 174 177 180 184 200 191 172 162 163 170 165 138 130 142 144 146 147 157 172 195 263 329 332 332 345 354 357 354 358 358 360 359 356 350 346
178 179 180 175 176 177 178 179 179 182 186 195 196 185 181 175 164 158 157 157 140 158 157 167 179 195 209 227 254 291 309 316 331 342 345 341 342 338 337 340 343 340 337
181 182 184 181 179 179 179 180 183 185 189 188 180 170 167 160 148 158 166 164 152 152 165 190 217 223 227 242 261 284 300 314 321 325 332 326 324 325 324 326 328 330 330
185 186 185 184 183 183 182 183 185 189 191 186 175 162 150 150 161 191 208 221 178 172 212 263 271 250 248 263 273 284 300 304 307 308 314 315 314 312 311 315 319 321 330
191 193 190 188 187 188 188 190 192 196 196 193 186 184 180 179 184 228 235 235 240 244 260 275 274 268 269 275 279 293 297 301 301 303 309 313 316 315 313 314 316 317 324
190 194 198 195 194 193 194 197 201 203 206 205 206 207 213 219 223 242 230 229 238 260 286 294 272 267 269 277 287 293 300 304 304 305 309 314 313 315 318 318 314 316 321
196 200 202 202 203 202 202 204 208 210 212 216 221 228 231 236 239 239 240 244 256 275 274 284 271 274 274 276 281 290 298 302 305 312 311 310 310 307 310 311 307 312 317
204 206 205 205 209 210 211 212 214 217 221 226 229 237 245 244 247 249 247 244 250 268 265 272 276 272 273 277 279 289 295 300 310 312 318 324 316 311 314 317 311 313 315
211 207 208 216 214 210 213 217 220 222 228 234 236 244 253 255 255 254 252 250 250 263 264 266 274 279 279 284 287 291 291 323 332 309 314 323 331 333 329 319 322 327 331
215 213 212 210 205 208 214 218 219 226 231 237 233 238 247 261 265 264 267 262 259 265 269 268 273 276 283 289 295 301 300 307 309 301 306 327 1 12 20 35 16 334 333
220 218 220 218 210 209 207 202 216 224 227 230 234 237 243 248 254 260 261 266 265 259 262 260 261 264 273 281 291 295 306 305 302 296 300 112 35 17 339 43 13 340 338
225 221 220 219 219 216 213 206 211 223 229 232 237 240 245 248 251 258 262 265 263 263 268 268 271 271 274 283 289 291 314 301 281 133 117 91 34 330 240 283 311 317 315
222 223 226 226 228 225 223 223 222 226 231 237 242 247 248 250 253 258 262 266 270 269 267 267 267 269 270 272 272 292 306 298 166 179 347 242 287 314 286 282 290 290 290
223 223 224 234 236 231 229 228 226 229 235 240 243 248 249 254 258 261 263 265 268 269 269 268 269 268 270 264 265 259 274 267 264 262 291 222 298 307 305 303 308 307 307
215 221 224 229 235 235 231 231 233 240 244 247 252 257 262 260 261 263 264 266 267 268 268 269 270 265 262 259 258 258 254 261 267 285 229 253 299 289 295 302 301 300 303
205 218 225 229 233 241 238 234 239 244 250 252 253 257 269 272 260 264 268 268 271 270 271 270 269 269 262 258 255 259 258 260 258 258 275 272 267 273 283 292 300 297 291
195 209 225 230 230 236 239 235 235 237 243 248 255 261 268 272 262 258 262 266 269 271 269 273 271 269 268 262 260 257 252 249 253 251 253 259 272 265 274 285 297 293 295
Wind_Speed_850mb
62 55 48 39 31 29 28 29 35 37 36 34 36 35 37 39 39 34 26 26 29 30 28 26 25 22 20 18 14 15 22 24 25 27 27 30 30 31 28 30 33 32 30
69 56 50 39 34 33 31 37 39 40 38 35 36 35 36 32 32 30 29 29 30 26 22 17 19 16 13 12 13 15 21 27 28 29 28 27 27 31 25 32 29 27 30
66 55 49 41 34 35 34 41 40 40 37 35 36 35 31 33 32 27 25 25 30 28 19 19 16 14 11 11 17 23 22 26 28 29 27 27 28 23 23 25 24 24 24
62 56 50 41 37 37 39 43 40 39 37 37 36 38 35 29 21 16 17 16 25 23 18 17 19 15 11 14 19 26 27 26 26 29 27 27 25 24 22 22 21 22 22
60 54 47 41 38 39 42 43 41 38 37 31 31 28 23 15 10 8 6 6 15 26 17 15 15 11 10 13 16 20 21 20 24 24 25 25 23 24 22 22 21 21 20
58 52 46 41 39 40 43 44 40 37 34 29 25 22 17 13 9 8 4 8 17 20 22 19 14 12 12 12 15 17 18 19 18 20 21 21 21 22 22 21 20 19 18
56 50 46 39 40 41 43 44 40 36 32 24 23 16 13 11 10 8 6 15 20 23 26 20 17 14 13 11 11 12 14 15 15 15 17 18 18 18 19 19 18 18 17
53 50 44 40 41 41 43 42 38 34 29 22 18 13 11 11 14 13 9 16 19 20 24 21 18 15 12 8 7 6 9 10 11 11 12 13 15 17 17 17 16 16 16
51 48 45 43 42 41 42 42 37 37 27 18 13 8 8 11 16 16 11 14 19 20 19 18 16 13 9 5 2 3 5 6 7 9 10 10 11 13 15 16 17 17 17
53 49 46 46 46 43 43 43 38 35 24 16 10 9 10 14 18 18 13 13 16 14 13 12 11 8 6 3 3 3 6 8 7 9 11 10 10 11 13 15 17 18 18
54 51 48 47 47 43 43 45 39 32 25 16 12 11 11 13 16 16 14 10 12 11 9 8 8 7 6 6 7 6 7 9 9 10 13 11 12 12 14 16 18 19 19
57 53 48 46 47 44 44 46 42 36 27 19 15 9 13 14 10 10 9 12 9 10 9 6 7 10 10 9 9 8 9 9 10 11 13 14 14 14 16 19 19 20 21
55 51 50 48 47 46 46 46 43 37 27 22 18 14 15 14 9 8 9 8 5 6 5 4 6 8 10 10 10 10 11 13 14 15 15 16 16 17 18 19 20 21 23
52 47 48 49 47 46 45 44 41 36 29 24 18 15 11 10 6 3 10 11 10 9 9 8 8 9 9 10 11 13 15 17 16 16 16 19 20 21 22 22 22 22 21
41 47 46 48 48 45 45 43 41 37 30 23 20 16 14 12 9 6 7 10 10 9 10 12 12 12 13 14 15 16 16 16 16 18 18 20 21 20 20 20 21 21 19
36 36 41 45 47 45 44 42 40 38 32 28 24 20 18 18 16 13 11 11 11 11 13 12 12 13 13 15 15 17 18 20 21 21 21 19 18 21 24 22 20 18 17
38 34 37 38 43 47 45 41 39 36 33 31 27 24 23 22 21 19 18 17 13 13 15 14 14 14 15 17 16 18 21 21 19 16 13 16 21 23 21 19 19 20 19
39 38 33 36 42 48 44 40 38 35 34 32 29 24 24 26 25 25 23 21 18 19 18 17 18 18 19 20 18 19 20 16 13 12 13 18 21 17 14 14 14 14 13
37 38 33 33 37 42 40 39 33 28 29 23 26 27 26 21 21 22 19 18 21 21 20 18 18 19 18 19 22 24 23 21 19 17 15 11 9 10 9 7 6 8 11
42 40 38 35 36 37 34 34 36 35 36 35 33 32 30 29 26 26 25 23 21 23 23 23 22 22 23 25 28 30 20 18 18 11 7 7 7 7 2 3 5 9 15
44 50 49 42 41 44 43 46 44 45 39 38 36 33 34 33 31 32 32 29 29 30 28 29 29 28 28 28 31 33 17 11 2 12 8 2 4 4 3 6 10 17 21
41 39 43 46 48 48 50 47 48 44 44 41 39 38 38 37 36 37 35 34 33 36 37 37 37 37 36 32 30 31 11 4 17 9 8 4 10 9 13 16 21 25 28
48 47 48 53 56 53 54 54 54 57 51 45 44 45 43 43 42 42 41 39 39 40 43 44 43 43 41 34 33 24 12 5 9 10 10 6 14 21 18 21 25 28 28
40 48 55 55 59 47 50 53 47 54 55 48 46 42 42 48 49 47 45 47 46 47 48 47 45 49 46 44 42 41 38 32 18 14 8 16 32 21 21 25 24 30 32
26 38 46 54 54 55 52 43 49 49 46 50 47 41 37 38 47 50 51 51 52 50 50 50 50 48 52 53 52 53 47 40 37 41 35 24 21 27 27 26 28 27 24
17 21 29 36 43 48 49 49 54 53 52 51 49 47 45 37 37 47 51 52 51 54 54 53 51 55 55 58 60 61 62 56 50 47 46 39 33 29 22 22 23 28 27
Wind_Direction_850mb
173 167 173 177 169 162 156 151 145 140 138 135 132 129 129 130 128 129 110 102 133 132 131 127 114 108 96 75 66 59 72 78 78 74 76 89 83 76 73 75 69 79 81
166 167 172 175 167 160 155 150 143 140 138 138 138 135 138 137 137 128 116 113 116 128 151 138 123 125 93 55 62 72 84 79 76 74 71 76 80 78 75 76 72 68 79
168 167 167 172 165 159 154 151 146 144 142 136 150 143 143 139 136 129 121 128 122 117 121 123 122 118 100 83 75 77 91 78 75 73 69 70 75 78 76 75 66 79 70
167 167 164 168 163 159 155 153 148 150 152 142 133 145 136 141 141 141 130 138 164 146 145 121 125 111 108 93 81 75 77 76 77 72 69 65 65 67 64 60 59 58 60
168 167 164 165 164 159 157 155 150 155 164 157 153 149 156 162 173 192 186 153 163 179 157 148 134 131 113 99 80 67 66 69 70 64 61 61 58 59 56 54 52 51 49
168 167 164 165 164 161 159 159 158 160 161 173 165 169 177 187 204 209 187 148 149 159 163 161 150 137 120 95 74 65 61 61 61 57 57 56 53 50 47 45 43 43 43
167 166 162 167 165 163 162 165 164 165 161 158 172 177 187 198 204 192 172 150 150 134 153 144 139 129 117 102 81 68 63 55 50 48 51 53 48 44 39 35 32 29 29
168 167 164 168 169 167 167 167 169 169 163 155 162 173 185 191 182 181 153 145 138 126 132 139 136 132 129 124 100 77 56 46 42 36 38 37 36 33 29 23 19 16 15
173 172 170 171 172 171 171 173 171 174 169 166 174 189 180 172 171 174 160 139 145 139 135 136 139 140 140 134 106 31 26 25 20 21 24 24 23 19 16 9 4 2 359
175 175 175 173 175 175 175 177 174 177 180 184 200 191 172 162 163 170 165 138 130 142 144 146 147 157 172 195 263 329 332 332 345 354 357 354 358 358 360 359 356 350 346
178 179 180 175 176 177 178 179 179 182 186 195 196 185 181 175 164 158 157 157 140 158 157 167 179 195 209 227 254 291 309 316 331 342 345 341 342 338 337 340 343 340 337
181 182 184 181 179 179 179 180 183 185 189 188 180 170 167 160 148 158 166 164 152 152 165 190 217 223 227 242 261 284 300 314 321 325 332 326 324 325 324 326 328 330 330
185 186 185 184 183 183 182 183 185 189 191 186 175 162 150 150 161 191 208 221 178 172 212 263 271 250 248 263 273 284 300 304 307 308 314 315 314 312 311 315 319 321 330
191 193 190 188 187 188 188 190 192 196 196 193 186 184 180 179 184 228 235 235 240 244 260 275 274 268 269 275 279 293 297 301 301 303 309 313 316 315 313 314 316 317 324
190 194 198 195 194 193 194 197 201 203 206 205 206 207 213 219 223 242 230 229 238 260 286 294 272 267 269 277 287 293 300 304 304 305 309 314 313 315 318 318 314 316 321
196 200 202 202 203 202 202 204 208 210 212 216 221 228 231 236 239 239 240 244 256 275 274 284 271 274 274 276 281 290 298 302 305 312 311 310 310 307 310 311 307 312 317
204 206 205 205 209 210 211 212 214 217 221 226 229 237 245 244 247 249 247 244 250 268 265 272 276 272 273 277 279 289 295 300 310 312 318 324 316 311 314 317 311 313 315
211 207 208 216 214 210 213 217 220 222 228 234 236 244 253 255 255 254 252 250 250 263 264 266 274 279 279 284 287 291 291 323 332 309 314 323 331 333 329 319 322 327 331
215 213 212 210 205 208 214 218 219 226 231 237 233 238 247 261 265 264 267 262 259 265 269 268 273 276 283 289 295 301 300 307 309 301 306 327 1 12 20 35 16 334 333
220 218 220 218 210 209 207 202 216 224 227 230 234 237 243 248 254 260 261 266 265 259 262 260 261 264 273 281 291 295 306 305 302 296 300 112 35 17 339 43 13 340 338
225 221 220 219 219 216 213 206 211 223 229 232 237 240 245 248 251 258 262 265 263 263 268 268 271 271 274 283 289 291 314 301 281 133 117 91 34 330 240 283 311 317 315
222 223 226 226 228 225 223 223 222 226 231 237 242 247 248 250 253 258 262 266 270 269 267 267 267 269 270 272 272 292 306 298 166 179 347 242 287 314 286 282 290 290 290
223 223 224 234 236 231 229 228 226 229 235 240 243 248 249 254 258 261 263 265 268 269 269 268 269 268 270 264 265 259 274 267 264 262 291 222 298 307 305 303 308 307 307
215 221 224 229 235 235 231 231 233 240 244 247 252 257 262 260 261 263 264 266 267 268 268 269 270 265 262 259 258 258 254 261 267 285 229 253 299 289 295 302 301 300 303
205 218 225 229 233 241 238 234 239 244 250 252 253 257 269 272 260 264 268 268 271 270 271 270 269 269 262 258 255 259 258 260 258 258 275 272 267 273 283 292 300 297 291
195 209 225 230 230 236 239 235 235 237 243 248 255 261 268 272 262 258 262 266 269 271 269 273 271 269 268 262 260 257 252 249 253 251 253 259 272 265 274 285 297 293 295